UUEE - Шереметьево
Обновление: 02:00:00 19.06.2021
Безоблачно
Безоблачно
 Wind from S
Ветер: S 180° at 2 mph , 4 km/h
Превышение порта: 630 ft. или 192 м.
Высота перехода: 4570 ft.
Эшелон перехода: 4570 ft.
Явления: Безоблачно
Видимость: более 7 миль , 10 km
Рабочие полосы: 24L с курсом 244 градусов, частота КГС 110.5
24C с курсом 244 градусов, частота КГС 111.3
24R с курсом 244 градусов, частота КГС 109.35
Состояние ВПП: Полоса 14R, состояние: , прощадью , толщина менее 1 см, сцепление 60%
Погодные явления:
2021/06/19 02:00 UUDD 190200Z 18001MPS CAVOK 12/11 Q1027 R14R/CLRD60 NOSIG 0
UUDD - Домодедово
Обновление: 02:00:00 19.06.2021
Безоблачно
Безоблачно
 Wind from S
Ветер: S 180° at 2 mph , 4 km/h
Превышение порта: 594 ft. или 181 м.
Высота перехода: 4540 ft.
Эшелон перехода: 4540 ft.
Явления: Безоблачно
Видимость: более 7 миль , 10 km
Рабочие полосы: 14L с курсом 135 градусов, частота КГС 0
14R с курсом 135 градусов, частота КГС 110.1
14 с курсом 135 градусов, частота КГС 108.5
Состояние ВПП: Полоса 14R, состояние: , прощадью , толщина менее 1 см, сцепление 60%
Погодные явления:
2021/06/19 02:00 UUDD 190200Z 18001MPS CAVOK 12/11 Q1027 R14R/CLRD60 NOSIG 0
UUWW - Внуково
Обновление: 02:00:00 19.06.2021
Безоблачно
Безоблачно
 Wind from S
Ветер: S 180° at 2 mph , 4 km/h
Превышение порта: 686 ft. или 209 м.
Высота перехода: 4630 ft.
Эшелон перехода: 4630 ft.
Явления: Безоблачно
Видимость: более 7 миль , 10 km
Рабочие полосы: 24 с курсом 238 градусов, частота КГС 111.1
19 с курсом 193 градусов, частота КГС 111.5
Состояние ВПП: Полоса 14R, состояние: , прощадью , толщина менее 1 см, сцепление 60%
Погодные явления:
2021/06/19 02:00 UUDD 190200Z 18001MPS CAVOK 12/11 Q1027 R14R/CLRD60 NOSIG 0
 
UWGG - Стригино Нижний-Новгород
Обновление: 02:00:00 19.06.2021
Безоблачно
Безоблачно
 Wind from S
Ветер: S 180° at 2 mph , 4 km/h
Превышение порта: 259 ft. или 79 м.
Высота перехода: 3220 ft.
Эшелон перехода: 3220 ft.
Явления: Безоблачно
Видимость: более 7 миль , 10 km
Рабочие полосы: 18L с курсом 179 градусов, частота КГС 108.1
18R с курсом 179 градусов, частота КГС 109.9
Состояние ВПП: Полоса 14R, состояние: , прощадью , толщина менее 1 см, сцепление 60%
Погодные явления:
2021/06/19 02:00 UUDD 190200Z 18001MPS CAVOK 12/11 Q1027 R14R/CLRD60 NOSIG 0
UWWW - Курумоч Самара
Обновление: 02:00:00 19.06.2021
Безоблачно
Безоблачно
 Wind from S
Ветер: S 180° at 2 mph , 4 km/h
Превышение порта: 476 ft. или 145 м.
Высота перехода: 3430 ft.
Эшелон перехода: 3430 ft.
Явления: Безоблачно
Видимость: более 7 миль , 10 km
Рабочие полосы: 23 с курсом 229 градусов, частота КГС 109.7
15 с курсом 148 градусов, частота КГС 111.9
Состояние ВПП: Полоса 14R, состояние: , прощадью , толщина менее 1 см, сцепление 60%
Погодные явления:
2021/06/19 02:00 UUDD 190200Z 18001MPS CAVOK 12/11 Q1027 R14R/CLRD60 NOSIG 0
ULLI - Пулково Питер
Обновление: 02:00:00 19.06.2021
Безоблачно
Безоблачно
 Wind from S
Ветер: S 180° at 2 mph , 4 km/h
Превышение порта: 79 ft. или 24 м.
Высота перехода: 3500 ft.
Эшелон перехода: 3500 ft.
Явления: Безоблачно
Видимость: более 7 миль , 10 km
Рабочие полосы: 10R с курсом 96 градусов, частота КГС 111.9
10L с курсом 96 градусов, частота КГС 110.5
Состояние ВПП: Полоса 14R, состояние: , прощадью , толщина менее 1 см, сцепление 60%
Погодные явления:
2021/06/19 02:00 UUDD 190200Z 18001MPS CAVOK 12/11 Q1027 R14R/CLRD60 NOSIG 0
 
ULMM - Мурманск
Обновление: 02:00:00 19.06.2021
Безоблачно
Безоблачно
 Wind from S
Ветер: S 180° at 2 mph , 4 km/h
Превышение порта: 266 ft. или 81 м.
Высота перехода: 3220 ft.
Эшелон перехода: 3220 ft.
Явления: Безоблачно
Видимость: более 7 миль , 10 km
Рабочие полосы: 13 с курсом 131 градусов, частота КГС 110.3
Состояние ВПП: Полоса 14R, состояние: , прощадью , толщина менее 1 см, сцепление 60%
Погодные явления:
2021/06/19 02:00 UUDD 190200Z 18001MPS CAVOK 12/11 Q1027 R14R/CLRD60 NOSIG 0
URSS - Сочи
Обновление: 02:00:00 19.06.2021
Безоблачно
Безоблачно
 Wind from S
Ветер: S 180° at 2 mph , 4 km/h
Превышение порта: 89 ft. или 27 м.
Высота перехода: 3700 ft.
Эшелон перехода: 5000 ft.
Явления: Безоблачно
Видимость: более 7 миль , 10 km
Рабочие полосы: 24 с курсом 238 градусов, частота КГС 0
20 с курсом 202 градусов, частота КГС 0
Состояние ВПП: Полоса 14R, состояние: , прощадью , толщина менее 1 см, сцепление 60%
Погодные явления:
2021/06/19 02:00 UUDD 190200Z 18001MPS CAVOK 12/11 Q1027 R14R/CLRD60 NOSIG 0
URRP - Платов Ростов-на-Дону
Обновление: 02:00:00 19.06.2021
Безоблачно
Безоблачно
 Wind from S
Ветер: S 180° at 2 mph , 4 km/h
Превышение порта: 282 ft. или 86 м.
Высота перехода: 3240 ft.
Эшелон перехода: 5000 ft.
Явления: Безоблачно
Видимость: более 7 миль , 10 km
Рабочие полосы: 23 с курсом 226 градусов, частота КГС 110.9
Состояние ВПП: Полоса 14R, состояние: , прощадью , толщина менее 1 см, сцепление 60%
Погодные явления:
2021/06/19 02:00 UUDD 190200Z 18001MPS CAVOK 12/11 Q1027 R14R/CLRD60 NOSIG 0
 
URWW - Волгоград
Обновление: 02:00:00 19.06.2021
Безоблачно
Безоблачно
 Wind from S
Ветер: S 180° at 2 mph , 4 km/h
Превышение порта: 476 ft. или 145 м.
Высота перехода: 2780 ft.
Эшелон перехода: 2780 ft.
Явления: Безоблачно
Видимость: более 7 миль , 10 km
Рабочие полосы: 24 с курсом 235 градусов, частота КГС 110.5
Состояние ВПП: Полоса 14R, состояние: , прощадью , толщина менее 1 см, сцепление 60%
Погодные явления:
2021/06/19 02:00 UUDD 190200Z 18001MPS CAVOK 12/11 Q1027 R14R/CLRD60 NOSIG 0
ULAA - Архангельск
Обновление: 02:00:00 19.06.2021
Безоблачно
Безоблачно
 Wind from S
Ветер: S 180° at 2 mph , 4 km/h
Превышение порта: 62 ft. или 19 м.
Высота перехода: 2690 ft.
Эшелон перехода: 2690 ft.
Явления: Безоблачно
Видимость: более 7 миль , 10 km
Рабочие полосы: 26 с курсом 261 градусов, частота КГС 111.7
Состояние ВПП: Полоса 14R, состояние: , прощадью , толщина менее 1 см, сцепление 60%
Погодные явления:
2021/06/19 02:00 UUDD 190200Z 18001MPS CAVOK 12/11 Q1027 R14R/CLRD60 NOSIG 0
USPP - Пермь
Обновление: 02:00:00 19.06.2021
Безоблачно
Безоблачно
 Wind from S
Ветер: S 180° at 2 mph , 4 km/h
Превышение порта: 404 ft. или 123 м.
Высота перехода: 4350 ft.
Эшелон перехода: 4350 ft.
Явления: Безоблачно
Видимость: более 7 миль , 10 km
Рабочие полосы: 21 с курсом 211 градусов, частота КГС 109.9
Состояние ВПП: Полоса 14R, состояние: , прощадью , толщина менее 1 см, сцепление 60%
Погодные явления:
2021/06/19 02:00 UUDD 190200Z 18001MPS CAVOK 12/11 Q1027 R14R/CLRD60 NOSIG 0
 
USSS - Екатеринбург
Обновление: 02:00:00 19.06.2021
Безоблачно
Безоблачно
 Wind from S
Ветер: S 180° at 2 mph , 4 km/h
Превышение порта: 768 ft. или 234 м.
Высота перехода: 3730 ft.
Эшелон перехода: 3730 ft.
Явления: Безоблачно
Видимость: более 7 миль , 10 km
Рабочие полосы: 26L с курсом 259 градусов, частота КГС 109.5
26R с курсом 255 градусов, частота КГС 110.5
Состояние ВПП: Полоса 14R, состояние: , прощадью , толщина менее 1 см, сцепление 60%
Погодные явления:
2021/06/19 02:00 UUDD 190200Z 18001MPS CAVOK 12/11 Q1027 R14R/CLRD60 NOSIG 0
USTR - Тюмень
Обновление: 02:00:00 19.06.2021
Безоблачно
Безоблачно
 Wind from S
Ветер: S 180° at 2 mph , 4 km/h
Превышение порта: 377 ft. или 115 м.
Высота перехода: 2680 ft.
Эшелон перехода: 4000 ft.
Явления: Безоблачно
Видимость: более 7 миль , 10 km
Рабочие полосы: 21 с курсом 213 градусов, частота КГС 110.7
12 с курсом 120 градусов, частота КГС 0
Состояние ВПП: Полоса 14R, состояние: , прощадью , толщина менее 1 см, сцепление 60%
Погодные явления:
2021/06/19 02:00 UUDD 190200Z 18001MPS CAVOK 12/11 Q1027 R14R/CLRD60 NOSIG 0
UNNT - Новосибирск
Обновление: 02:00:00 19.06.2021
Безоблачно
Безоблачно
 Wind from S
Ветер: S 180° at 2 mph , 4 km/h
Превышение порта: 367 ft. или 112 м.
Высота перехода: 4640 ft.
Эшелон перехода: 6000 ft.
Явления: Безоблачно
Видимость: более 7 миль , 10 km
Рабочие полосы: 25 с курсом 252 градусов, частота КГС 108.5
16 с курсом 161 градусов, частота КГС 109.7
Состояние ВПП: Полоса 14R, состояние: , прощадью , толщина менее 1 см, сцепление 60%
Погодные явления:
2021/06/19 02:00 UUDD 190200Z 18001MPS CAVOK 12/11 Q1027 R14R/CLRD60 NOSIG 0
 
URKK - Краснодар
Обновление: 02:00:00 19.06.2021
Безоблачно
Безоблачно
 Wind from S
Ветер: S 180° at 2 mph , 4 km/h
Превышение порта: 118 ft. или 36 м.
Высота перехода: 4060 ft.
Эшелон перехода: 4060 ft.
Явления: Безоблачно
Видимость: более 7 миль , 10 km
Рабочие полосы: 23R с курсом 226 градусов, частота КГС 0
23L с курсом 226 градусов, частота КГС 109.5
Состояние ВПП: Полоса 14R, состояние: , прощадью , толщина менее 1 см, сцепление 60%
Погодные явления:
2021/06/19 02:00 UUDD 190200Z 18001MPS CAVOK 12/11 Q1027 R14R/CLRD60 NOSIG 0
UNKL - Красноярск
Обновление: 02:00:00 19.06.2021
Безоблачно
Безоблачно
 Wind from S
Ветер: S 180° at 2 mph , 4 km/h
Превышение порта: 942 ft. или 287 м.
Высота перехода: 4880 ft.
Эшелон перехода: 6000 ft.
Явления: Безоблачно
Видимость: более 7 миль , 10 km
Рабочие полосы: 11 с курсом 109 градусов, частота КГС 110.5
Состояние ВПП: Полоса 14R, состояние: , прощадью , толщина менее 1 см, сцепление 60%
Погодные явления:
2021/06/19 02:00 UUDD 190200Z 18001MPS CAVOK 12/11 Q1027 R14R/CLRD60 NOSIG 0
USTR - Рощино
Обновление: 02:00:00 19.06.2021
Безоблачно
Безоблачно
 Wind from S
Ветер: S 180° at 2 mph , 4 km/h
Превышение порта: 377 ft. или 115 м.
Высота перехода: 2680 ft.
Эшелон перехода: 4000 ft.
Явления: Безоблачно
Видимость: более 7 миль , 10 km
Рабочие полосы: 21 с курсом 213 градусов, частота КГС 110.7
12 с курсом 120 градусов, частота КГС 0
Состояние ВПП: Полоса 14R, состояние: , прощадью , толщина менее 1 см, сцепление 60%
Погодные явления:
2021/06/19 02:00 UUDD 190200Z 18001MPS CAVOK 12/11 Q1027 R14R/CLRD60 NOSIG 0
 
EFTP - Тампа Фин.
Обновление: 02:00:00 19.06.2021
Безоблачно
Безоблачно
 Wind from S
Ветер: S 180° at 2 mph , 4 km/h
Превышение порта: 391 ft. или 119 м.
Высота перехода: 5000 ft.
Эшелон перехода: 5000 ft.
Явления: Безоблачно
Видимость: более 7 миль , 10 km
Рабочие полосы: 24 с курсом 236 градусов, частота КГС 110.1
Состояние ВПП: Полоса 14R, состояние: , прощадью , толщина менее 1 см, сцепление 60%
Погодные явления:
2021/06/19 02:00 UUDD 190200Z 18001MPS CAVOK 12/11 Q1027 R14R/CLRD60 NOSIG 0
EFHK - Хельсенки
Обновление: 02:00:00 19.06.2021
Безоблачно
Безоблачно
 Wind from S
Ветер: S 180° at 2 mph , 4 km/h
Превышение порта: 180 ft. или 55 м.
Высота перехода: 5000 ft.
Эшелон перехода: 5000 ft.
Явления: Безоблачно
Видимость: более 7 миль , 10 km
Рабочие полосы: 15 с курсом 145 градусов, частота КГС 109.1
22L с курсом 219 градусов, частота КГС 110.3
22R с курсом 219 градусов, частота КГС 110.7
Состояние ВПП: Полоса 14R, состояние: , прощадью , толщина менее 1 см, сцепление 60%
Погодные явления:
2021/06/19 02:00 UUDD 190200Z 18001MPS CAVOK 12/11 Q1027 R14R/CLRD60 NOSIG 0
EPGD - Гданьск Леха Валенса
Обновление: 02:00:00 19.06.2021
Безоблачно
Безоблачно
 Wind from S
Ветер: S 180° at 2 mph , 4 km/h
Превышение порта: 489 ft. или 149 м.
Высота перехода: 6500 ft.
Эшелон перехода: 6500 ft.
Явления: Безоблачно
Видимость: более 7 миль , 10 km
Рабочие полосы: 11 с курсом 108 градусов, частота КГС 0
Состояние ВПП: Полоса 14R, состояние: , прощадью , толщина менее 1 см, сцепление 60%
Погодные явления:
2021/06/19 02:00 UUDD 190200Z 18001MPS CAVOK 12/11 Q1027 R14R/CLRD60 NOSIG 0
 
UMMS - Минск-2
Обновление: 02:00:00 19.06.2021
Безоблачно
Безоблачно
 Wind from S
Ветер: S 180° at 2 mph , 4 km/h
Превышение порта: 670 ft. или 204 м.
Высота перехода: 6000 ft.
Эшелон перехода: 6000 ft.
Явления: Безоблачно
Видимость: более 7 миль , 10 km
Рабочие полосы: 13 с курсом 131 градусов, частота КГС 108.9
Состояние ВПП: Полоса 14R, состояние: , прощадью , толщина менее 1 см, сцепление 60%
Погодные явления:
2021/06/19 02:00 UUDD 190200Z 18001MPS CAVOK 12/11 Q1027 R14R/CLRD60 NOSIG 0
UKBB - Киев Борисполь
Обновление: 02:00:00 19.06.2021
Безоблачно
Безоблачно
 Wind from S
Ветер: S 180° at 2 mph , 4 km/h
Превышение порта: 427 ft. или 130 м.
Высота перехода: 10010 ft.
Эшелон перехода: 10010 ft.
Явления: Безоблачно
Видимость: более 7 миль , 10 km
Рабочие полосы: 18R с курсом 176 градусов, частота КГС 108.9
18L с курсом 176 градусов, частота КГС 111.3
Состояние ВПП: Полоса 14R, состояние: , прощадью , толщина менее 1 см, сцепление 60%
Погодные явления:
2021/06/19 02:00 UUDD 190200Z 18001MPS CAVOK 12/11 Q1027 R14R/CLRD60 NOSIG 0
UKOO - Одесса
Обновление: 02:00:00 19.06.2021
Безоблачно
Безоблачно
 Wind from S
Ветер: S 180° at 2 mph , 4 km/h
Превышение порта: 171 ft. или 52 м.
Высота перехода: 10010 ft.
Эшелон перехода: 10010 ft.
Явления: Безоблачно
Видимость: более 7 миль , 10 km
Рабочие полосы: 16 с курсом 157 градусов, частота КГС 108.3
Состояние ВПП: Полоса 14R, состояние: , прощадью , толщина менее 1 см, сцепление 60%
Погодные явления:
2021/06/19 02:00 UUDD 190200Z 18001MPS CAVOK 12/11 Q1027 R14R/CLRD60 NOSIG 0
 
UKKM - Антонов Гомель
Обновление: 02:00:00 19.06.2021
Безоблачно
Безоблачно
 Wind from S
Ветер: S 180° at 2 mph , 4 km/h
Превышение порта: 518 ft. или 158 м.
Высота перехода: 10010 ft.
Эшелон перехода: 10010 ft.
Явления: Безоблачно
Видимость: более 7 миль , 10 km
Рабочие полосы: 15 с курсом 148 градусов, частота КГС 111.9
Состояние ВПП: Полоса 14R, состояние: , прощадью , толщина менее 1 см, сцепление 60%
Погодные явления:
2021/06/19 02:00 UUDD 190200Z 18001MPS CAVOK 12/11 Q1027 R14R/CLRD60 NOSIG 0
EDDM - Мюнхен
Обновление: 02:00:00 19.06.2021
Безоблачно
Безоблачно
 Wind from S
Ветер: S 180° at 2 mph , 4 km/h
Превышение порта: 1487 ft. или 453 м.
Высота перехода: 5000 ft.
Эшелон перехода: 5000 ft.
Явления: Безоблачно
Видимость: более 7 миль , 10 km
Рабочие полосы: 26L с курсом 260 градусов, частота КГС 108.3
26R с курсом 260 градусов, частота КГС 108.7
Состояние ВПП: Полоса 14R, состояние: , прощадью , толщина менее 1 см, сцепление 60%
Погодные явления:
2021/06/19 02:00 UUDD 190200Z 18001MPS CAVOK 12/11 Q1027 R14R/CLRD60 NOSIG 0
EDDS - Штутгард
Обновление: 02:00:00 19.06.2021
Безоблачно
Безоблачно
 Wind from S
Ветер: S 180° at 2 mph , 4 km/h
Превышение порта: 1276 ft. или 389 м.
Высота перехода: 5000 ft.
Эшелон перехода: 5000 ft.
Явления: Безоблачно
Видимость: более 7 миль , 10 km
Рабочие полосы: 25 с курсом 252 градусов, частота КГС 109.9
Состояние ВПП: Полоса 14R, состояние: , прощадью , толщина менее 1 см, сцепление 60%
Погодные явления:
2021/06/19 02:00 UUDD 190200Z 18001MPS CAVOK 12/11 Q1027 R14R/CLRD60 NOSIG 0
 
EDDF - Франкфурт на Майне
Обновление: 02:00:00 19.06.2021
Безоблачно
Безоблачно
 Wind from S
Ветер: S 180° at 2 mph , 4 km/h
Превышение порта: 364 ft. или 111 м.
Высота перехода: 5000 ft.
Эшелон перехода: 5000 ft.
Явления: Безоблачно
Видимость: более 7 миль , 10 km
Рабочие полосы: 18 с курсом 178 градусов, частота КГС 0
25L с курсом 248 градусов, частота КГС 111.15
25C с курсом 248 градусов, частота КГС 111.55
25R с курсом 248 градусов, частота КГС 109.75
Состояние ВПП: Полоса 14R, состояние: , прощадью , толщина менее 1 см, сцепление 60%
Погодные явления:
2021/06/19 02:00 UUDD 190200Z 18001MPS CAVOK 12/11 Q1027 R14R/CLRD60 NOSIG 0
EDLP - Пандерборн
Обновление: 02:00:00 19.06.2021
Безоблачно
Безоблачно
 Wind from S
Ветер: S 180° at 2 mph , 4 km/h
Превышение порта: 699 ft. или 213 м.
Высота перехода: 5000 ft.
Эшелон перехода: 5000 ft.
Явления: Безоблачно
Видимость: более 7 миль , 10 km
Рабочие полосы: 24 с курсом 235 градусов, частота КГС 108.55
Состояние ВПП: Полоса 14R, состояние: , прощадью , толщина менее 1 см, сцепление 60%
Погодные явления:
2021/06/19 02:00 UUDD 190200Z 18001MPS CAVOK 12/11 Q1027 R14R/CLRD60 NOSIG 0
EBBR - Брюссель
Обновление: 02:00:00 19.06.2021
Безоблачно
Безоблачно
 Wind from S
Ветер: S 180° at 2 mph , 4 km/h
Превышение порта: 184 ft. или 56 м.
Высота перехода: 4500 ft.
Эшелон перехода: 4500 ft.
Явления: Безоблачно
Видимость: более 7 миль , 10 km
Рабочие полосы: 25L с курсом 249 градусов, частота КГС 110.35
19 с курсом 193 градусов, частота КГС 111.15
25R с курсом 244 градусов, частота КГС 108.9
Состояние ВПП: Полоса 14R, состояние: , прощадью , толщина менее 1 см, сцепление 60%
Погодные явления:
2021/06/19 02:00 UUDD 190200Z 18001MPS CAVOK 12/11 Q1027 R14R/CLRD60 NOSIG 0
 
LOWI - Инсбург
Обновление: 02:00:00 19.06.2021
Безоблачно
Безоблачно
 Wind from S
Ветер: S 180° at 2 mph , 4 km/h
Превышение порта: 1907 ft. или 581 м.
Высота перехода: 10000 ft.
Эшелон перехода: 10000 ft.
Явления: Безоблачно
Видимость: более 7 миль , 10 km
Рабочие полосы: 26 с курсом 258 градусов, частота КГС 111.1
Состояние ВПП: Полоса 14R, состояние: , прощадью , толщина менее 1 см, сцепление 60%
Погодные явления:
2021/06/19 02:00 UUDD 190200Z 18001MPS CAVOK 12/11 Q1027 R14R/CLRD60 NOSIG 0
LOWW - Wien
Обновление: 02:00:00 19.06.2021
Безоблачно
Безоблачно
 Wind from S
Ветер: S 180° at 2 mph , 4 km/h
Превышение порта: 600 ft. или 183 м.
Высота перехода: 10000 ft.
Эшелон перехода: 10000 ft.
Явления: Безоблачно
Видимость: более 7 миль , 10 km
Рабочие полосы: 16 с курсом 160 градусов, частота КГС 108.5
11 с курсом 112 градусов, частота КГС 110.3
Состояние ВПП: Полоса 14R, состояние: , прощадью , толщина менее 1 см, сцепление 60%
Погодные явления:
2021/06/19 02:00 UUDD 190200Z 18001MPS CAVOK 12/11 Q1027 R14R/CLRD60 NOSIG 0
LBSF - София
Обновление: 02:00:00 19.06.2021
Безоблачно
Безоблачно
 Wind from S
Ветер: S 180° at 2 mph , 4 km/h
Превышение порта: 1742 ft. или 531 м.
Высота перехода: 12000 ft.
Эшелон перехода: 12000 ft.
Явления: Безоблачно
Видимость: более 7 миль , 10 km
Рабочие полосы: 27 с курсом 270 градусов, частота КГС 109.5
09 с курсом 90 градусов, частота КГС 110.7
Состояние ВПП: Полоса 14R, состояние: , прощадью , толщина менее 1 см, сцепление 60%
Погодные явления:
2021/06/19 02:00 UUDD 190200Z 18001MPS CAVOK 12/11 Q1027 R14R/CLRD60 NOSIG 0
 
LYTV - Тиват
Обновление: 02:00:00 19.06.2021
Безоблачно
Безоблачно
 Wind from S
Ветер: S 180° at 2 mph , 4 km/h
Превышение порта: 20 ft. или 6 м.
Высота перехода: 10000 ft.
Эшелон перехода: 10000 ft.
Явления: Безоблачно
Видимость: более 7 миль , 10 km
Рабочие полосы: 14 с курсом 135 градусов, частота КГС 0
Состояние ВПП: Полоса 14R, состояние: , прощадью , толщина менее 1 см, сцепление 60%
Погодные явления:
2021/06/19 02:00 UUDD 190200Z 18001MPS CAVOK 12/11 Q1027 R14R/CLRD60 NOSIG 0
EGPF - Глазго
Обновление: 02:00:00 19.06.2021
Безоблачно
Безоблачно
 Wind from S
Ветер: S 180° at 2 mph , 4 km/h
Превышение порта: 26 ft. или 8 м.
Высота перехода: 6000 ft.
Эшелон перехода: 6000 ft.
Явления: Безоблачно
Видимость: более 7 миль , 10 km
Рабочие полосы: 23 с курсом 229 градусов, частота КГС 110.1
Состояние ВПП: Полоса 14R, состояние: , прощадью , толщина менее 1 см, сцепление 60%
Погодные явления:
2021/06/19 02:00 UUDD 190200Z 18001MPS CAVOK 12/11 Q1027 R14R/CLRD60 NOSIG 0
EGSS - Лондон Станстед
Обновление: 02:00:00 19.06.2021
Безоблачно
Безоблачно
 Wind from S
Ветер: S 180° at 2 mph , 4 km/h
Превышение порта: 348 ft. или 106 м.
Высота перехода: 6000 ft.
Эшелон перехода: 6000 ft.
Явления: Безоблачно
Видимость: более 7 миль , 10 km
Рабочие полосы: 22 с курсом 223 градусов, частота КГС 110.5
Состояние ВПП: Полоса 14R, состояние: , прощадью , толщина менее 1 см, сцепление 60%
Погодные явления:
2021/06/19 02:00 UUDD 190200Z 18001MPS CAVOK 12/11 Q1027 R14R/CLRD60 NOSIG 0
 
EGLL - Лондон Хитроу
Обновление: 02:00:00 19.06.2021
Безоблачно
Безоблачно
 Wind from S
Ветер: S 180° at 2 mph , 4 km/h
Превышение порта: 83 ft. или 25 м.
Высота перехода: 6000 ft.
Эшелон перехода: 6000 ft.
Явления: Безоблачно
Видимость: более 7 миль , 10 km
Рабочие полосы: 09R с курсом 90 градусов, частота КГС 109.5
27L с курсом 270 градусов, частота КГС 109.5
09L с курсом 90 градусов, частота КГС 110.3
27R с курсом 270 градусов, частота КГС 110.3
Состояние ВПП: Полоса 14R, состояние: , прощадью , толщина менее 1 см, сцепление 60%
Погодные явления:
2021/06/19 02:00 UUDD 190200Z 18001MPS CAVOK 12/11 Q1027 R14R/CLRD60 NOSIG 0
LEBL - Барселона
Обновление: 02:00:00 19.06.2021
Безоблачно
Безоблачно
 Wind from S
Ветер: S 180° at 2 mph , 4 km/h
Превышение порта: 14 ft. или 4 м.
Высота перехода: 6000 ft.
Эшелон перехода: 6000 ft.
Явления: Безоблачно
Видимость: более 7 миль , 10 km
Рабочие полосы: 25L с курсом 245 градусов, частота КГС 111.5
25R с курсом 245 градусов, частота КГС 109.5
20 с курсом 199 градусов, частота КГС 0
Состояние ВПП: Полоса 14R, состояние: , прощадью , толщина менее 1 см, сцепление 60%
Погодные явления:
2021/06/19 02:00 UUDD 190200Z 18001MPS CAVOK 12/11 Q1027 R14R/CLRD60 NOSIG 0
LEMD - Мадрид
Обновление: 02:00:00 19.06.2021
Безоблачно
Безоблачно
 Wind from S
Ветер: S 180° at 2 mph , 4 km/h
Превышение порта: 1998 ft. или 609 м.
Высота перехода: 13000 ft.
Эшелон перехода: 13000 ft.
Явления: Безоблачно
Видимость: более 7 миль , 10 km
Рабочие полосы: 14R с курсом 143 градусов, частота КГС 0
14L с курсом 143 градусов, частота КГС 0
18R с курсом 181 градусов, частота КГС 110.7
18L с курсом 181 градусов, частота КГС 111.5
Состояние ВПП: Полоса 14R, состояние: , прощадью , толщина менее 1 см, сцепление 60%
Погодные явления:
2021/06/19 02:00 UUDD 190200Z 18001MPS CAVOK 12/11 Q1027 R14R/CLRD60 NOSIG 0
 
LSGG - Женева
Обновление: 02:00:00 19.06.2021
Безоблачно
Безоблачно
 Wind from S
Ветер: S 180° at 2 mph , 4 km/h
Превышение порта: 1411 ft. или 430 м.
Высота перехода: 7000 ft.
Эшелон перехода: 7000 ft.
Явления: Безоблачно
Видимость: более 7 миль , 10 km
Рабочие полосы: 22 с курсом 224 градусов, частота КГС 109.9
Состояние ВПП: Полоса 14R, состояние: , прощадью , толщина менее 1 см, сцепление 60%
Погодные явления:
2021/06/19 02:00 UUDD 190200Z 18001MPS CAVOK 12/11 Q1027 R14R/CLRD60 NOSIG 0
LFMN - Ница
Обновление: 02:00:00 19.06.2021
Безоблачно
Безоблачно
 Wind from S
Ветер: S 180° at 2 mph , 4 km/h
Превышение порта: 12 ft. или 4 м.
Высота перехода: 5000 ft.
Эшелон перехода: 5000 ft.
Явления: Безоблачно
Видимость: более 7 миль , 10 km
Рабочие полосы: 22L с курсом 223 градусов, частота КГС 0
22R с курсом 223 градусов, частота КГС 0
Состояние ВПП: Полоса 14R, состояние: , прощадью , толщина менее 1 см, сцепление 60%
Погодные явления:
2021/06/19 02:00 UUDD 190200Z 18001MPS CAVOK 12/11 Q1027 R14R/CLRD60 NOSIG 0
LFPG - Париж Шарль Де Голь
Обновление: 02:00:00 19.06.2021
Безоблачно
Безоблачно
 Wind from S
Ветер: S 180° at 2 mph , 4 km/h
Превышение порта: 392 ft. или 119 м.
Высота перехода: 5000 ft.
Эшелон перехода: 5000 ft.
Явления: Безоблачно
Видимость: более 7 миль , 10 km
Рабочие полосы: 26L с курсом 265 градусов, частота КГС 108.35
26R с курсом 265 градусов, частота КГС 111.95
27L с курсом 265 градусов, частота КГС 110.7
27R с курсом 265 градусов, частота КГС 110.35
Состояние ВПП: Полоса 14R, состояние: , прощадью , толщина менее 1 см, сцепление 60%
Погодные явления:
2021/06/19 02:00 UUDD 190200Z 18001MPS CAVOK 12/11 Q1027 R14R/CLRD60 NOSIG 0
 
LFPO - Париж Орли
Обновление: 02:00:00 19.06.2021
Безоблачно
Безоблачно
 Wind from S
Ветер: S 180° at 2 mph , 4 km/h
Превышение порта: 291 ft. или 89 м.
Высота перехода: 5000 ft.
Эшелон перехода: 5000 ft.
Явления: Безоблачно
Видимость: более 7 миль , 10 km
Рабочие полосы: 26 с курсом 254 градусов, частота КГС 111.75
24 с курсом 242 градусов, частота КГС 110.9
20 с курсом 198 градусов, частота КГС 0
Состояние ВПП: Полоса 14R, состояние: , прощадью , толщина менее 1 см, сцепление 60%
Погодные явления:
2021/06/19 02:00 UUDD 190200Z 18001MPS CAVOK 12/11 Q1027 R14R/CLRD60 NOSIG 0
LPFR - Фаро
Обновление: 02:00:00 19.06.2021
Безоблачно
Безоблачно
 Wind from S
Ветер: S 180° at 2 mph , 4 km/h
Превышение порта: 24 ft. или 7 м.
Высота перехода: 4000 ft.
Эшелон перехода: 4000 ft.
Явления: Безоблачно
Видимость: более 7 миль , 10 km
Рабочие полосы: 10 с курсом 103 градусов, частота КГС 110.5
Состояние ВПП: Полоса 14R, состояние: , прощадью , толщина менее 1 см, сцепление 60%
Погодные явления:
2021/06/19 02:00 UUDD 190200Z 18001MPS CAVOK 12/11 Q1027 R14R/CLRD60 NOSIG 0
LFLB - Шамбери
Обновление: 02:00:00 19.06.2021
Безоблачно
Безоблачно
 Wind from S
Ветер: S 180° at 2 mph , 4 km/h
Превышение порта: 779 ft. или 237 м.
Высота перехода: 6500 ft.
Эшелон перехода: 6500 ft.
Явления: Безоблачно
Видимость: более 7 миль , 10 km
Рабочие полосы: 18 с курсом 175 градусов, частота КГС 109.5
Состояние ВПП: Полоса 14R, состояние: , прощадью , толщина менее 1 см, сцепление 60%
Погодные явления:
2021/06/19 02:00 UUDD 190200Z 18001MPS CAVOK 12/11 Q1027 R14R/CLRD60 NOSIG 0